Location: Franzen
(48.6167°N, 15.3833°E)
Time: 10:40:43
(UTC+00:00)

Cosmos 1295 Rocket - Pass Details

Date: 22 April 2021
Orbit: 945 x 993 km, 82.9° (Epoch: 16 May)

Event Time Altitude Azimuth Distance (km) Brightness Sun altitude
Rises 23:21:41 0° 349° (N) 3,681 8.6 -28.6°
Reaches altitude 10° 23:24:12 10° 348° (NNW) 2,736 7.7 -28.6°
Maximum altitude 23:30:28 77° 264° (W) 1,014 4.4 -28.4°
Enters shadow 23:30:44 75° 236° (SW) 1,020 4.4 -28.4°
